Location: Étouvelles
(49.5207°N, 3.5808°E)
Time: 23:48:25
(UTC+00:00)

Cosmos 540 Rocket - Pass Details

Date: 23 September 2023
Orbit: 737 x 752 km, 74.1° (Epoch: 03 December)

Event Time Altitude Azimuth Distance (km) Brightness Sun altitude
Rises 22:36:16 0° 334° (NNW) 3,183 7.6 -39.0°
Reaches altitude 10° 22:38:39 10° 331° (NNW) 2,257 6.6 -39.1°
Enters shadow 22:40:01 19° 328° (NNW) 1,742 5.9 -39.2°
